Domov               UVHVVR             MKGP            O straneh              
ZDRAVSTVENO VARSTVO RASTLIN
  MREŽA AGROMET. POSTAJ
 ► PROGNOSTIČNA OBVESTILA
AGROMETEOROLOŠKI PODATKI -
ARSO
OBVLADOVANJE TVEGANJ ZARADI
NEUGODNIH VREMENSKIH RAZMER
  ► NARAVNE NESREČE
  ► SUŠA/MOČA
  ► NAMAKANJE
  ► ŽLED (gozdarstvo)
KARTOGRAFSKI PRIKAZI
SPLETNE POVEZAVE
PROJEKTI IN PUBLIKACIJE

AGROMETEOROLOŠKA MREŽA: VREMENSKE POSTAJE IN FENOLOŠKA OPAZOVANJA

Pregled podatkov za lokacijo Meranovo, meteorološka postaja 61680

Pregled senzorjev na lokaciji

ID Ime Zadnja
vrednost
Datum
zadnje
spremembe
Tip
senzorja
4200 Temperatura 2 m (°C) 1,34 °C 20.1.2018 12:00 Generic -40 - +60 °C
4201 Relativna vlaga 2 m (% RH) 72,07 % RH 20.1.2018 12:00 Generic 0 - 100 %
4202 Omočenost lista (U) 0 U 20.1.2018 12:00 A730WET
4203 Padavine (mm) 0 mm 20.1.2018 12:00 Generic 0.2 mm

Pregled podatkov zadnjih 24 ur

Zap.
št.
Datum in čas Meranovo
Omočenost
lista
Padavine Relativna
vlaga
2
m
Temperatura
2
m
0 20.1.2018 12:00 0 0 72,07 1,34
1 20.1.2018 11:30 0 0 74,19 0,78
2 20.1.2018 11:00 0 0 73,95 0,63
3 20.1.2018 10:30 0 0 72,37 0,69
4 20.1.2018 10:00 0 0 73,72 0,44
5 20.1.2018 09:30 0 0 74,85 0,01
6 20.1.2018 09:00 0 0 76,61 -0,16
7 20.1.2018 08:30 0 0 80,63 -0,85
8 20.1.2018 08:00 0 0 82,02 -0,84
9 20.1.2018 07:30 0 0 83,76 -0,76
10 20.1.2018 07:00 0 0 83,7 -0,63
11 20.1.2018 06:30 0 0 84,28 -0,66
12 20.1.2018 06:00 1 0 85,3 -0,73
13 20.1.2018 05:30 1 0 83,87 -0,7
14 20.1.2018 05:00 1 0 86,34 -0,91
15 20.1.2018 04:30 1 0 87,23 -1,08
16 20.1.2018 04:00 1 0 85,41 -1,12
17 20.1.2018 03:30 1 0 88,13 -1,39
18 20.1.2018 03:00 1 0 85,88 -1,11
19 20.1.2018 02:30 1 0 79,18 -0,78
20 20.1.2018 02:00 1 0 77,58 -0,67
21 20.1.2018 01:30 1 0 75,02 -0,13
22 20.1.2018 01:00 4 0 80,4 -0,63
23 20.1.2018 00:30 2 0 85,31 -0,16
24 20.1.2018 00:00 2 0 98,8 -0,16
25 19.1.2018 23:30 1 0 78,17 0,68
26 19.1.2018 23:00 0 0 74,35 0,98
27 19.1.2018 22:30 0 0 70,53 1,27
28 19.1.2018 22:00 0 0 66,06 1,93
29 19.1.2018 21:30 0 0 67,84 2
30 19.1.2018 21:00 0 0 68,94 1,99
31 19.1.2018 20:30 0 0 61,58 2,66
32 19.1.2018 20:00 0 0 66,69 2,62
33 19.1.2018 19:30 0 0 67,37 2,46
34 19.1.2018 19:00 0 0 61,53 3,25
35 19.1.2018 18:30 0 0 63,21 3,38
36 19.1.2018 18:00 0 0 65,95 3,32
37 19.1.2018 17:30 0 0 68,92 3,16
38 19.1.2018 17:00 0 0 72,19 3,01
39 19.1.2018 16:30 0 0 71,58 3,23
40 19.1.2018 16:00 0 0 72,96 3,2
41 19.1.2018 15:30 0 0 68,58 3,56
42 19.1.2018 15:00 0 0 67,89 3,57
43 19.1.2018 14:30 0 0 64,06 3,95
44 19.1.2018 14:00 0 0 58,77 4,51
45 19.1.2018 13:30 2 0 64,14 4,28
46 19.1.2018 13:00 2 0 61,72 4,63
47 19.1.2018 12:30 1 0 61,64 4,4
© 2011 Ministrstvo za kmetijstvo, gozdarstvo in prehrano. Vse pravice pridržane.